K5TWC Weather Reports


time (UTC)temp
F
wind
direction
speed
knots
gust
knots
rain 1hr
in
rain 24hr
in
rain mn
in
humidity
%
barometer
mb
20260506222507 58 47 1.7 7.0 0.02 0.52 0.52 84 1014.6
20260506222006 58 41 1.7 7.0 0.02 0.52 0.52 85 1014.5
20260506221513 58 11 0.9 8.7 0.02 0.52 0.52 84 1014.4
20260506221012 58 51 1.7 8.7 0.03 0.52 0.52 84 1014.1
20260506220507 58 68 1.7 7.0 0.02 0.51 0.51 84 1014.1
20260506220022 58 60 2.6 8.7 0.02 0.51 0.51 84 1014.4
20260506215507 58 40 3.5 8.7 0.02 0.51 0.51 83 1014.2
20260506215007 59 339 2.6 7.0 0.02 0.51 0.51 83 1014.3
20260506214521 59 325 2.6 7.8 0.02 0.51 0.51 83 1014.1
20260506214007 59 348 2.6 9.6 0.03 0.51 0.51 82 1014.4
20260506213508 59 281 1.7 9.6 0.03 0.51 0.51 83 1014.1
20260506213025 59 348 2.6 7.8 0.02 0.50 0.50 82 1013.9
20260506212507 59 329 1.7 8.7 0.02 0.50 0.50 83 1014.3
20260506212009 59 313 1.7 8.7 0.03 0.50 0.50 83 1014.3
20260506211527 59 32 1.7 7.8 0.03 0.50 0.50 83 1014.3
20260506211010 59 34 2.6 7.8 0.02 0.49 0.49 83 1014.1
20260506210504 59 330 0.9 7.8 0.02 0.49 0.49 83 1014.2
20260506210015 59 49 2.6 7.8 0.02 0.49 0.49 84 1014.3
20260506205507 59 313 2.6 7.8 0.02 0.49 0.49 84 1014.2
20260506205004 59 333 3.5 8.7 0.02 0.49 0.49 83 1014.3
20260506204524 59 301 3.5 8.7 0.03 0.49 0.49 84 1014.6
20260506204006 58 46 1.7 9.6 0.02 0.48 0.48 84 1014.6
20260506203517 58 311 4.3 9.6 0.02 0.48 0.48 85 1014.5
20260506203022 58 334 2.6 7.0 0.03 0.48 0.48 85 1014.6
20260506202507 58 360 2.6 7.0 0.03 0.48 0.48 86 1014.7
20260506202011 57 306 1.7 6.1 0.02 0.47 0.47 85 1014.9
20260506201526 57 360 2.6 4.3 0.02 0.47 0.47 85 1015.2
20260506201008 57 343 0.9 7.8 0.02 0.47 0.47 85 1015.2
20260506200512 57 61 0.9 7.8 0.02 0.47 0.47 85 1015.2
20260506200026 58 342 1.7 7.8 0.03 0.47 0.47 86 1015.0
20260506195507 57 21 2.6 8.7 0.03 0.47 0.47 87 1014.7
20260506195006 57 328 3.5 8.7 0.03 0.47 0.47 88 1014.6
20260506194518 57 350 3.5 8.7 0.03 0.46 0.46 88 1014.7
20260506194006 56 347 2.6 6.1 0.03 0.46 0.46 88 1015.0
20260506193505 56 40 0.9 4.3 0.03 0.46 0.46 88 1015.0
20260506193019 56 329 0.0 3.5 0.02 0.45 0.45 88 1015.2
20260506192511 56 331 0.0 4.3 0.03 0.45 0.45 88 1015.4
20260506192013 56 324 1.7 7.8 0.03 0.45 0.45 88 1015.4
20260506191524 56 9 1.7 7.8 0.04 0.45 0.45 88 1015.3
20260506191007 56 314 1.7 7.8 0.04 0.45 0.45 88 1015.4
20260506190508 56 317 1.7 7.0 0.04 0.45 0.45 88 1015.3
20260506190024 56 313 0.9 7.0 0.04 0.44 0.44 88 1015.2
20260506185506 56 360 2.6 6.1 0.04 0.44 0.44 88 1015.4
20260506185011 56 355 1.7 5.2 0.05 0.44 0.44 88 1015.1
20260506184525 56 49 0.0 4.3 0.04 0.43 0.43 89 1015.1
20260506184009 56 38 0.0 8.7 0.05 0.43 0.43 89 1014.9
20260506183507 56 52 1.7 9.6 0.05 0.43 0.43 89 1014.6
20260506183019 55 52 2.6 9.6 0.06 0.43 0.43 89 1014.2
20260506182506 55 22 2.6 11.3 0.05 0.42 0.42 89 1013.8
20260506182007 55 25 3.5 12.2 0.06 0.42 0.42 89 1013.7
20260506181523 55 360 4.3 12.2 0.06 0.41 0.41 90 1013.5
20260506181010 55 320 2.6 10.4 0.06 0.41 0.41 90 1013.5
20260506180510 55 30 3.5 10.4 0.07 0.41 0.41 90 1013.5
20260506180029 55 325 1.7 10.4 0.07 0.40 0.40 91 1013.6
20260506175502 55 46 2.6 10.4 0.08 0.40 0.40 91 1013.9
20260506175003 55 13 0.9 8.7 0.08 0.39 0.39 91 1014.2
20260506174512 55 67 2.6 8.7 0.08 0.39 0.39 91 1014.2
20260506174004 54 15 1.7 7.8 0.09 0.38 0.38 91 1014.3
20260506173505 54 36 2.6 9.6 0.09 0.38 0.38 90 1014.6
20260506173014 54 34 4.3 9.6 0.10 0.37 0.37 90 1015.0
20260506172503 54 71 1.7 9.6 0.11 0.37 0.37 90 1015.1
20260506172007 54 56 2.6 7.8 0.11 0.36 0.36 90 1015.2
20260506171523 54 23 0.9 7.8 0.12 0.35 0.35 91 1015.2
20260506171008 54 65 2.6 9.6 0.13 0.35 0.35 91 1015.4
20260506170507 54 340 3.5 9.6 0.14 0.34 0.34 91 1014.6
20260506170004 54 34 1.7 7.0 0.15 0.33 0.33 91 1014.8
20260506165503 54 31 1.7 8.7 0.16 0.32 0.32 91 1014.9
20260506165003 54 340 1.7 8.7 0.17 0.31 0.31 91 1015.1
20260506164508 54 59 0.9 7.8 0.20 0.31 0.31 91 1015.2
20260506164004 54 5 1.7 7.8 0.21 0.29 0.29 91 1015.0
20260506163504 54 350 0.9 6.1 0.24 0.29 0.29 91 1015.3
20260506163029 54 338 1.7 5.2 0.27 0.27 0.27 91 1015.3
20260506162504 54 40 2.6 5.2 0.26 0.26 0.26 91 1015.4
20260506162006 54 86 0.0 5.2 0.25 0.25 0.25 91 1015.5
20260506161518 54 89 0.0 5.2 0.23 0.23 0.23 91 1015.5
20260506161004 54 130 0.0 7.0 0.22 0.22 0.22 91 1015.2
20260506160510 54 130 1.7 7.0 0.20 0.20 0.20 91 1015.2
20260506160021 53 104 0.9 10.4 0.18 0.18 0.18 90 1015.0
20260506155507 53 360 2.6 13.0 0.16 0.16 0.16 90 1014.7
20260506155010 53 335 5.2 13.0 0.14 0.14 0.14 89 1014.4
20260506154505 53 18 4.3 10.4 0.11 0.11 0.11 88 1014.2
20260506154008 54 360 3.5 7.8 0.08 0.08 0.08 86 1016.1
20260506153504 54 277 2.6 7.0 0.05 0.05 0.05 85 1017.2
20260506153006 54 285 1.7 7.0 0.00 0.00 0.00 84 1016.6
20260506152505 54 305 0.9 7.0 0.00 0.00 0.00 84 1016.1
20260506152006 54 313 0.9 7.8 0.00 0.00 0.00 84 1015.9
20260506151513 54 350 3.5 7.8 0.00 0.00 0.00 84 1015.5
20260506151004 54 360 1.7 7.8 0.00 0.00 0.00 84 1015.4
20260506150504 54 325 2.6 9.6 0.00 0.00 0.00 83 1015.3
20260506150016 54 331 1.7 13.0 0.00 0.00 0.00 83 1015.5
20260506145510 54 352 4.3 13.0 0.00 0.00 0.00 83 1014.6
20260506145011 54 306 4.3 9.6 0.00 0.00 0.00 83 1014.7
20260506144523 54 360 1.7 8.7 0.00 0.00 0.00 83 1015.4
20260506144008 54 360 3.5 8.7 0.00 0.00 0.00 83 1015.5
20260506143508 54 360 3.5 8.7 0.00 0.00 0.00 83 1015.3
20260506143007 54 360 2.6 9.6 0.00 0.00 0.00 83 1015.0
20260506142504 54 9 3.5 9.6 0.00 0.00 0.00 83 1014.9
20260506142003 54 360 0.9 6.1 0.00 0.00 0.00 83 1014.9
20260506141513 54 314 1.7 9.6 0.00 0.00 0.00 83 1014.9
20260506141013 54 360 1.7 9.6 0.00 0.00 0.00 83 1014.7
20260506140504 54 315 4.3 9.6 0.00 0.00 0.00 83 1014.5
20260506140016 54 24 3.5 9.6 0.00 0.00 0.00 83 1014.4
20260506135511 54 348 3.5 9.6 0.00 0.00 0.00 83 1014.4
20260506135008 54 22 2.6 9.6 0.00 0.00 0.00 83 1014.4
20260506134518 54 28 2.6 9.6 0.00 0.00 0.00 83 1014.4
20260506134011 54 323 5.2 10.4 0.00 0.00 0.00 83 1014.3
20260506133505 54 311 4.3 10.4 0.00 0.00 0.00 83 1014.3
20260506133027 54 17 1.7 11.3 0.00 0.00 0.00 83 1014.1
20260506132511 54 315 2.6 11.3 0.00 0.00 0.00 83 1014.0
20260506132007 54 348 4.3 10.4 0.00 0.00 0.00 82 1014.0
20260506131508 54 49 3.5 9.6 0.00 0.00 0.00 82 1013.9
20260506131003 54 360 2.6 9.6 0.00 0.00 0.00 83 1014.0
20260506130504 54 329 1.7 9.6 0.00 0.00 0.00 83 1013.9
20260506130012 54 352 3.5 12.2 0.00 0.00 0.00 83 1013.9
20260506125502 54 298 5.2 12.2 0.00 0.00 0.00 83 1013.8
20260506125004 54 20 4.3 8.7 0.00 0.00 0.00 83 1013.8
20260506124516 55 333 0.9 8.7 0.00 0.00 0.00 83 1013.5
20260506124008 54 342 1.7 8.7 0.00 0.00 0.00 82 1013.6
20260506123504 54 25 2.6 7.8 0.00 0.00 0.00 82 1013.6
20260506123028 54 330 2.6 8.7 0.00 0.00 0.00 82 1013.5
20260506122505 54 360 1.7 8.7 0.00 0.00 0.00 82 1013.3
20260506122008 55 327 3.5 8.7 0.00 0.00 0.00 82 1013.3
20260506121533 55 28 2.6 11.3 0.00 0.00 0.00 82 1013.4
20260506121008 55 342 3.5 11.3 0.00 0.00 0.00 82 1013.5
20260506120507 55 9 3.5 11.3 0.00 0.00 0.00 82 1013.3
20260506120011 55 306 3.5 11.3 0.00 0.00 0.00 81 1013.3
20260506115506 55 360 1.7 8.7 0.00 0.00 0.00 81 1013.1
20260506115002 55 329 2.6 10.4 0.00 0.00 0.00 81 1013.1
20260506114513 55 311 3.5 10.4 0.00 0.00 0.00 80 1012.8
20260506114007 55 306 3.5 10.4 0.00 0.00 0.00 80 1012.6
20260506113506 55 360 3.5 9.6 0.00 0.00 0.00 79 1012.4
20260506113020 55 329 3.5 11.3 0.00 0.00 0.00 79 1012.5
20260506112506 55 14 4.3 11.3 0.00 0.00 0.00 79 1012.6
20260506112009 55 311 4.3 13.0 0.00 0.00 0.00 79 1012.5
20260506111523 55 303 3.5 13.0 0.00 0.00 0.00 78 1012.3
20260506111007 55 315 6.1 11.3 0.00 0.00 0.00 78 1012.3
20260506110510 56 317 5.2 9.6 0.00 0.00 0.00 77 1012.3
20260506110029 56 327 3.5 8.7 0.00 0.00 0.00 77 1012.2
20260506105509 56 348 4.3 8.7 0.00 0.00 0.00 77 1012.0
20260506105008 57 342 2.6 8.7 0.00 0.00 0.00 77 1012.0
20260506104507 57 323 0.9 6.1 0.00 0.00 0.00 77 1011.8
20260506104004 57 360 1.7 7.8 0.00 0.00 0.00 77 1011.7
20260506103504 57 316 0.9 7.8 0.00 0.00 0.00 77 1011.6
20260506103015 57 348 1.7 5.2 0.00 0.00 0.00 77 1011.5
20260506102506 57 28 1.7 6.1 0.00 0.00 0.00 76 1011.6
20260506102008 57 351 1.7 7.0 0.00 0.00 0.00 76 1011.5
20260506101521 57 51 3.5 7.0 0.00 0.00 0.00 76 1011.4
20260506101008 57 342 1.7 8.7 0.00 0.00 0.00 76 1011.2
20260506100507 57 327 0.9 8.7 0.00 0.00 0.00 76 1011.3
20260506100025 57 340 0.9 7.0 0.00 0.00 0.00 76 1011.2
20260506095508 57 317 3.5 8.7 0.00 0.00 0.00 76 1011.1
20260506095009 57 327 0.9 8.7 0.00 0.00 0.00 76 1011.2
20260506094524 57 360 3.5 8.7 0.00 0.00 0.00 76 1011.2
20260506094012 57 336 2.6 7.0 0.00 0.00 0.00 76 1011.2
20260506093510 57 306 1.7 10.4 0.00 0.00 0.00 76 1011.0
20260506093011 58 306 3.5 10.4 0.00 0.00 0.00 76 1011.1
20260506092503 58 283 2.6 8.7 0.00 0.00 0.00 76 1011.1
20260506092007 58 9 0.0 4.3 0.00 0.00 0.00 76 1011.0
20260506091516 58 318 0.0 5.2 0.00 0.00 0.00 76 1010.9
20260506091006 58 349 1.7 5.2 0.00 0.00 0.00 76 1010.8
20260506090505 58 10 0.9 7.0 0.00 0.00 0.00 76 1010.7
20260506090022 58 19 1.7 7.0 0.00 0.00 0.00 76 1010.6
20260506085507 58 340 1.7 10.4 0.00 0.00 0.00 76 1010.6
20260506085007 58 352 0.9 10.4 0.00 0.00 0.00 76 1010.4
20260506084524 58 351 2.6 7.8 0.00 0.00 0.00 76 1010.5
20260506084007 58 344 2.6 7.0 0.00 0.00 0.00 76 1010.6
20260506083507 58 319 1.7 6.1 0.00 0.00 0.00 77 1010.5
20260506083027 58 331 0.9 6.1 0.00 0.00 0.00 77 1010.3
20260506082507 58 40 1.7 5.2 0.00 0.00 0.00 77 1010.2
20260506082011 58 50 0.9 6.1 0.00 0.00 0.00 77 1010.0
20260506081513 58 46 0.9 6.1 0.00 0.00 0.00 77 1010.2
20260506081003 58 47 0.9 4.3 0.00 0.00 0.00 76 1010.3
20260506080504 58 59 0.9 6.1 0.00 0.00 0.00 76 1010.2
20260506073508 58 22 2.6 7.8 0.00 0.00 0.00 77 1010.3
20260506073025 59 27 1.7 7.8 0.00 0.00 0.00 77 1010.3
20260506072507 59 334 2.6 7.0 0.00 0.00 0.00 77 1010.4
20260506072014 59 327 1.7 7.0 0.00 0.00 0.00 77 1010.3
20260506071531 59 57 2.6 8.7 0.00 0.00 0.00 77 1010.3
20260506071012 59 352 1.7 8.7 0.00 0.00 0.00 77 1010.3
20260506070506 59 78 1.7 8.7 0.00 0.00 0.00 77 1010.3
20260506062505 60 360 4.3 8.7 0.00 0.00 0.00 78 1010.2
20260506062004 61 315 2.6 8.7 0.00 0.00 0.00 78 1010.3
20260506061514 61 9 3.5 9.6 0.00 0.00 0.00 78 1010.2
20260506061004 61 49 2.6 9.6 0.00 0.00 0.00 78 1010.2
20260506060508 61 355 0.9 7.0 0.00 0.00 0.00 79 1010.2
20260506051005 64 309 4.3 8.7 0.00 0.00 0.00 79 1009.8
20260506050503 64 339 4.3 8.7 0.00 0.00 0.00 79 1009.8
20260506045003 65 360 1.7 10.4 0.00 0.00 0.00 79 1009.7
20260506044515 65 320 2.6 8.7 0.00 0.00 0.00 79 1009.7
20260506044003 65 360 2.6 8.7 0.00 0.00 0.00 79 1009.8
20260506043504 65 352 2.6 10.4 0.00 0.00 0.00 79 1009.7
20260506043020 66 282 4.3 10.4 0.00 0.00 0.00 78 1009.7
20260506042510 66 13 3.5 8.7 0.00 0.00 0.00 78 1009.7
20260506042011 66 355 3.5 10.4 0.00 0.00 0.00 78 1009.5
20260506041522 67 322 4.3 10.4 0.00 0.00 0.00 78 1009.3
20260506041006 67 313 2.6 9.6 0.00 0.00 0.00 78 1009.3
20260506040503 68 333 2.6 8.7 0.00 0.00 0.00 78 1009.3
20260506040023 68 360 4.3 8.7 0.00 0.00 0.00 77 1009.4
20260506035504 68 302 3.5 7.8 0.00 0.00 0.00 77 1009.2
20260506035004 69 338 2.6 8.7 0.00 0.00 0.00 77 1009.1
20260506034512 69 28 5.2 8.7 0.00 0.00 0.00 77 1009.1
20260506034005 69 306 2.6 7.0 0.00 0.00 0.00 77 1009.0
20260506033503 69 5 0.9 8.7 0.00 0.00 0.00 77 1008.9
20260506033016 70 360 1.7 8.7 0.00 0.00 0.00 77 1008.9
20260506032503 70 333 2.6 8.7 0.00 0.00 0.00 77 1008.6
20260506032009 70 355 0.9 8.7 0.00 0.00 0.00 76 1008.5
20260506031537 70 328 2.6 9.6 0.00 0.00 0.00 76 1008.6
20260506031008 70 345 3.5 9.6 0.00 0.00 0.00 76 1008.8
20260506030506 70 329 5.2 9.6 0.00 0.00 0.00 76 1008.6
20260506030024 71 301 5.2 9.6 0.00 0.00 0.00 75 1008.5
20260506025504 71 331 1.7 10.4 0.00 0.00 0.00 76 1008.3
20260506025003 72 360 4.3 10.4 0.00 0.00 0.00 75 1008.1
20260506024516 72 340 2.6 8.7 0.00 0.00 0.00 75 1008.0
20260506024006 73 326 3.5 11.3 0.00 0.00 0.00 75 1007.7
20260506023506 73 360 5.2 11.3 0.00 0.00 0.00 75 1007.5
20260506023012 74 331 3.5 8.7 0.00 0.00 0.00 74 1007.4
20260506022506 74 360 1.7 7.0 0.00 0.00 0.00 74 1007.1
20260506022006 74 360 2.6 4.3 0.00 0.00 0.00 73 1007.0
20260506021517 74 305 1.7 4.3 0.00 0.00 0.00 73 1006.8
20260506021007 74 337 0.0 7.0 0.00 0.00 0.00 73 1006.7
20260506020511 74 9 1.7 7.0 0.00 0.00 0.00 72 1006.8
20260506020021 75 323 0.0 8.7 0.00 0.00 0.00 72 1006.8
20260506015505 75 333 1.7 8.7 0.00 0.00 0.00 72 1006.8
20260506015007 75 305 2.6 7.0 0.00 0.00 0.00 72 1006.9
20260506014511 75 325 1.7 7.8 0.00 0.00 0.00 72 1006.6
20260506014002 75 317 1.7 7.8 0.00 0.00 0.00 72 1006.4
20260506013507 75 326 2.6 7.0 0.00 0.00 0.00 71 1006.4
20260506013009 75 331 1.7 7.0 0.00 0.00 0.00 71 1006.4
20260506012504 75 360 1.7 7.0 0.00 0.00 0.00 70 1006.8
20260506012004 76 300 1.7 9.6 0.00 0.00 0.00 70 1006.5
20260506011517 76 360 3.5 9.6 0.00 0.00 0.00 70 1006.1
20260506011003 76 360 3.5 9.6 0.00 0.00 0.00 70 1005.9
20260506010506 77 26 3.5 9.6 0.00 0.00 0.00 70 1006.0
20260506010018 78 36 4.3 9.6 0.00 0.00 0.00 69 1005.8
20260506005506 79 320 2.6 7.8 0.00 0.00 0.00 68 1005.9
20260506005009 79 9 2.6 6.1 0.00 0.00 0.00 67 1006.0
20260506004527 80 336 0.0 3.5 0.00 0.00 0.00 67 1005.9
20260506004013 80 338 0.9 5.2 0.00 0.00 0.00 66 1005.8
20260506003510 81 334 0.9 5.2 0.00 0.00 0.00 65 1005.6
20260506003012 82 355 0.0 5.2 0.00 0.00 0.00 65 1005.6
20260506002504 82 324 0.0 7.0 0.00 0.00 0.00 65 1005.8
20260506002004 82 271 0.0 7.0 0.00 0.00 0.00 66 1005.7
20260506001514 83 360 0.9 5.2 0.00 0.00 0.00 73 1005.5
20260506001004 83 231 0.0 5.2 0.00 0.00 0.00 73 1005.2
20260506000504 83 207 0.9 7.8 0.00 0.00 0.00 73 1005.3
20260506000021 83 168 0.0 7.8 0.00 0.00 0.00 73 1005.1
20260505235503 84 262 0.9 7.8 0.00 0.00 0.00 72 1004.6
20260505235007 84 188 0.9 8.7 0.00 0.00 0.00 72 1004.6
20260505234530 84 167 2.6 8.7 0.00 0.00 0.00 72 1004.3
20260505234007 85 155 1.7 8.7 0.00 0.00 0.00 71 1004.3
20260505233508 85 200 2.6 8.7 0.00 0.00 0.00 71 1004.5
20260505233026 85 165 3.5 8.7 0.00 0.00 0.00 70 1004.5
20260505232512 85 360 2.6 9.6 0.00 0.00 0.00 70 1004.4
20260505232010 86 360 3.5 9.6 0.00 0.00 0.00 69 1004.3
20260505231510 86 360 2.6 7.8 0.00 0.00 0.00 69 1004.4
20260505231003 86 170 1.7 8.7 0.00 0.00 0.00 69 1004.2
20260505230503 87 205 1.7 9.6 0.00 0.00 0.00 68 1004.3
20260505230022 87 198 0.9 9.6 0.00 0.00 0.00 68 1004.2
20260505225507 87 186 0.9 5.2 0.00 0.00 0.00 69 1004.2
20260505225004 86 169 1.7 6.1 0.00 0.00 0.00 68 1004.2
20260505224520 87 138 0.9 7.8 0.00 0.00 0.00 68 1004.2
20260505224004 87 198 2.6 9.6 0.00 0.00 0.00 68 1004.2
20260505223507 87 198 3.5 9.6 0.00 0.00 0.00 67 1004.0
20260505223024 88 360 3.5 11.3 0.00 0.00 0.00 66 1003.8